Tracking 21970 objects as of 25-Nov-2020
HD Live streaming from Space Station
objects crossing your sky now

IRIDIUM 33 DEB

Track IRIDIUM 33 DEB now!
10-day predictions


NORAD ID: 34366
Int'l Code: 1997-051FJ
Perigee: 756.2 km
Apogee: 791.7 km
Inclination: 86.4 °
Period: 100.2 minutes
Semi major axis: 7144 km
RCS: 0.0424 m2 (small)
Launch date: September 14, 1997
Source: United States (US)
Launch site: TYURATAM MISSILE AND SPACE COMPLEX (TTMTR)

Note: This is SATELLITE DEBRIS
aabbcc
Your satellite tracking list
Your tracking list is empty




NASA's NSSDC Master Catalog

Two Line Element Set (TLE):
1 34366U 97051FJ  20329.46041700 +.00000846 +00000-0 +27522-3 0  9991
2 34366 086.3740 115.7983 0024857 127.0208 290.6815 14.37484143615903
Source of the keplerian elements: AFSPC